Time,TemperatureF,DewpointF,PressureIn,WindDirection,WindDirectionDegrees,WindSpeedMPH,WindSpeedGustMPH,Humidity,HourlyPrecipIn,Conditions,Clouds,dailyrainin,SoftwareType,DateUTC
2017-10-23 00:00:00,52.0,30.2,29.88,SW,228,1.0,7.0,43,0.00,CLR,,0.00,WeatherDisplay:10.37,2017-10-23 05:00:00,
2017-10-23 00:05:00,51.6,30.4,29.87,SW,229,1.0,6.0,44,0.00,CLR,,0.00,WeatherDisplay:10.37,2017-10-23 05:05:00,
2017-10-23 00:10:00,51.4,30.2,29.87,SW,228,1.0,3.0,44,0.00,CLR,,0.00,WeatherDisplay:10.37,2017-10-23 05:10:00,
2017-10-23 00:15:00,51.2,30.0,29.88,SW,232,3.0,6.0,44,0.00,CLR,,0.00,WeatherDisplay:10.37,2017-10-23 05:15:00,
2017-10-23 00:20:00,51.0,30.4,29.88,SW,233,2.0,6.0,45,0.00,CLR,,0.00,WeatherDisplay:10.37,2017-10-23 05:20:00,
2017-10-23 00:25:00,50.9,30.3,29.88,SW,229,3.0,10.0,45,0.00,CLR,,0.00,WeatherDisplay:10.37,2017-10-23 05:25:00,
2017-10-23 00:30:00,51.4,30.2,29.88,SW,228,6.0,12.0,44,0.00,CLR,,0.00,WeatherDisplay:10.37,2017-10-23 05:30:00,
2017-10-23 00:35:00,51.6,30.3,29.87,SW,228,2.0,6.0,44,0.00,CLR,,0.00,WeatherDisplay:10.37,2017-10-23 05:35:00,
2017-10-23 00:40:00,51.3,30.1,29.87,SW,231,3.0,6.0,44,0.00,CLR,,0.00,WeatherDisplay:10.37,2017-10-23 05:40:00,
2017-10-23 00:45:00,51.1,30.4,29.87,SW,228,2.0,5.0,45,0.00,CLR,,0.00,WeatherDisplay:10.37,2017-10-23 05:45:00,
2017-10-23 00:50:00,50.8,30.2,29.87,SW,220,2.0,6.0,45,0.00,CLR,,0.00,WeatherDisplay:10.37,2017-10-23 05:50:00,
2017-10-23 00:55:00,50.8,30.7,29.86,SW,222,0.0,6.0,46,0.00,CLR,,0.00,WeatherDisplay:10.37,2017-10-23 05:55:00,
2017-10-23 01:00:00,50.6,30.6,29.86,SW,216,2.0,7.0,46,0.00,CLR,,0.00,WeatherDisplay:10.37,2017-10-23 06:00:00,
2017-10-23 01:05:00,50.6,30.6,29.86,SW,217,3.0,9.0,46,0.00,CLR,,0.00,WeatherDisplay:10.37,2017-10-23 06:05:00,
2017-10-23 01:10:00,50.6,30.6,29.86,SW,223,2.0,6.0,46,0.00,CLR,,0.00,WeatherDisplay:10.37,2017-10-23 06:10:00,
2017-10-23 01:15:00,50.6,30.6,29.86,SW,228,1.0,3.0,46,0.00,CLR,,0.00,WeatherDisplay:10.37,2017-10-23 06:15:00,
2017-10-23 01:20:00,50.5,31.0,29.86,SW,232,0.0,6.0,47,0.00,CLR,,0.00,WeatherDisplay:10.37,2017-10-23 06:20:00,
2017-10-23 01:25:00,50.2,30.7,29.86,SW,233,1.0,3.0,47,0.00,CLR,,0.00,WeatherDisplay:10.37,2017-10-23 06:25:00,
2017-10-23 01:30:00,50.1,31.1,29.85,SW,225,2.0,7.0,48,0.00,CLR,,0.00,WeatherDisplay:10.37,2017-10-23 06:30:00,
2017-10-23 01:35:00,50.0,31.1,29.85,SW,224,2.0,7.0,48,0.00,CLR,,0.00,WeatherDisplay:10.37,2017-10-23 06:35:00,
2017-10-23 01:40:00,50.1,31.1,29.85,SW,218,1.0,4.0,48,0.00,CLR,,0.00,WeatherDisplay:10.37,2017-10-23 06:40:00,
2017-10-23 01:45:00,49.8,30.9,29.85,South,188,0.0,0.0,48,0.00,CLR,,0.00,WeatherDisplay:10.37,2017-10-23 06:45:00,
2017-10-23 01:50:00,49.5,31.1,29.85,South,184,0.0,0.0,49,0.00,CLR,,0.00,WeatherDisplay:10.37,2017-10-23 06:50:00,
2017-10-23 01:55:00,49.4,31.0,29.85,SSW,192,0.0,3.0,49,0.00,CLR,,0.00,WeatherDisplay:10.37,2017-10-23 06:55:00,
2017-10-23 02:00:00,49.3,30.9,29.84,SSW,210,0.0,0.0,49,0.00,CLR,,0.00,WeatherDisplay:10.37,2017-10-23 07:00:00,
2017-10-23 02:05:00,49.3,31.0,29.84,SW,220,0.0,0.0,49,0.00,CLR,,0.00,WeatherDisplay:10.37,2017-10-23 07:05:00,
2017-10-23 02:10:00,49.3,30.9,29.84,SW,220,0.0,0.0,49,0.00,CLR,,0.00,WeatherDisplay:10.37,2017-10-23 07:10:00,
2017-10-23 02:15:00,49.2,30.8,29.84,SW,220,0.0,0.0,49,0.00,CLR,,0.00,WeatherDisplay:10.37,2017-10-23 07:15:00,
2017-10-23 02:20:00,49.3,30.9,29.83,SW,220,0.0,0.0,49,0.00,CLR,,0.00,WeatherDisplay:10.37,2017-10-23 07:20:00,
2017-10-23 02:25:00,49.4,31.0,29.83,SW,220,0.0,0.0,49,0.00,CLR,,0.00,WeatherDisplay:10.37,2017-10-23 07:25:00,
2017-10-23 02:30:00,49.5,31.2,29.83,SW,220,0.0,0.0,49,0.00,CLR,,0.00,WeatherDisplay:10.37,2017-10-23 07:30:00,
2017-10-23 02:35:00,49.5,31.1,29.83,SW,220,0.0,0.0,49,0.00,CLR,,0.00,WeatherDisplay:10.37,2017-10-23 07:35:00,
2017-10-23 02:40:00,49.5,31.2,29.83,SW,222,0.0,2.0,49,0.00,CLR,,0.00,WeatherDisplay:10.37,2017-10-23 07:40:00,
2017-10-23 02:45:00,49.5,31.1,29.83,SW,224,0.0,0.0,49,0.00,CLR,,0.00,WeatherDisplay:10.37,2017-10-23 07:45:00,
2017-10-23 02:50:00,49.5,31.2,29.83,SSW,212,0.0,3.0,49,0.00,CLR,,0.00,WeatherDisplay:10.37,2017-10-23 07:50:00,
2017-10-23 02:55:00,49.6,31.2,29.83,SSW,201,0.0,2.0,49,0.00,CLR,,0.00,WeatherDisplay:10.37,2017-10-23 07:55:00,
2017-10-23 03:00:00,49.5,31.2,29.84,SSW,202,0.0,0.0,49,0.00,CLR,,0.00,WeatherDisplay:10.37,2017-10-23 08:00:00,
2017-10-23 03:05:00,49.5,31.6,29.84,SSW,202,0.0,0.0,50,0.00,CLR,,0.00,WeatherDisplay:10.37,2017-10-23 08:05:00,
2017-10-23 03:10:00,49.3,31.0,29.84,SSW,203,0.0,3.0,49,0.00,CLR,,0.00,WeatherDisplay:10.37,2017-10-23 08:10:00,
2017-10-23 03:15:00,49.5,30.6,29.84,SW,223,1.0,5.0,48,0.00,CLR,,0.00,WeatherDisplay:10.37,2017-10-23 08:15:00,
2017-10-23 03:20:00,49.4,31.1,29.84,WSW,243,1.0,5.0,49,0.00,CLR,,0.00,WeatherDisplay:10.37,2017-10-23 08:20:00,
2017-10-23 03:25:00,49.4,31.1,29.84,WSW,246,3.0,5.0,49,0.00,CLR,,0.00,WeatherDisplay:10.37,2017-10-23 08:25:00,
2017-10-23 03:30:00,49.4,31.0,29.85,WSW,246,1.0,5.0,49,0.00,CLR,,0.00,WeatherDisplay:10.37,2017-10-23 08:30:00,
2017-10-23 03:35:00,49.2,31.4,29.85,WSW,244,2.0,6.0,50,0.00,CLR,,0.00,WeatherDisplay:10.37,2017-10-23 08:35:00,
2017-10-23 03:40:00,49.3,30.9,29.85,WSW,242,3.0,6.0,49,0.00,CLR,,0.00,WeatherDisplay:10.37,2017-10-23 08:40:00,
2017-10-23 03:45:00,49.3,31.5,29.85,WSW,242,1.0,5.0,50,0.00,CLR,,0.00,WeatherDisplay:10.37,2017-10-23 08:45:00,
2017-10-23 03:50:00,49.4,31.5,29.86,WSW,244,1.0,3.0,50,0.00,CLR,,0.00,WeatherDisplay:10.37,2017-10-23 08:50:00,
2017-10-23 03:55:00,49.5,31.6,29.86,WSW,251,0.0,4.0,50,0.00,CLR,,0.00,WeatherDisplay:10.37,2017-10-23 08:55:00,
2017-10-23 04:00:00,49.9,32.0,29.86,WSW,253,1.0,8.0,50,0.00,CLR,,0.00,WeatherDisplay:10.37,2017-10-23 09:00:00,
2017-10-23 04:05:00,50.2,32.3,29.86,WSW,255,2.0,4.0,50,0.00,CLR,,0.00,WeatherDisplay:10.37,2017-10-23 09:05:00,
2017-10-23 04:10:00,50.8,32.8,29.86,West,262,1.0,5.0,50,0.00,CLR,,0.00,WeatherDisplay:10.37,2017-10-23 09:10:00,
2017-10-23 04:15:00,51.8,33.7,29.87,West,280,1.0,5.0,50,0.00,CLR,,0.00,WeatherDisplay:10.37,2017-10-23 09:15:00,
2017-10-23 04:20:00,52.9,34.2,29.87,NW,306,1.0,6.0,49,0.00,CLR,,0.00,WeatherDisplay:10.37,2017-10-23 09:20:00,
2017-10-23 04:25:00,53.8,34.6,29.87,NW,316,3.0,7.0,48,0.00,CLR,,0.00,WeatherDisplay:10.37,2017-10-23 09:25:00,
2017-10-23 04:30:00,54.7,34.8,29.86,NW,310,3.0,8.0,47,0.00,CLR,,0.00,WeatherDisplay:10.37,2017-10-23 09:30:00,
2017-10-23 04:35:00,55.4,34.9,29.87,NW,307,3.0,8.0,46,0.00,CLR,,0.00,WeatherDisplay:10.37,2017-10-23 09:35:00,
2017-10-23 04:40:00,55.9,35.4,29.87,NW,310,2.0,8.0,46,0.00,CLR,,0.00,WeatherDisplay:10.37,2017-10-23 09:40:00,
2017-10-23 04:45:00,56.1,35.6,29.88,NW,314,2.0,8.0,46,0.00,CLR,,0.00,WeatherDisplay:10.37,2017-10-23 09:45:00,
2017-10-23 04:50:00,56.3,35.8,29.88,NW,314,3.0,9.0,46,0.00,CLR,,0.00,WeatherDisplay:10.37,2017-10-23 09:50:00,
2017-10-23 04:55:00,56.3,36.3,29.88,NW,307,5.0,10.0,47,0.00,CLR,,0.00,WeatherDisplay:10.37,2017-10-23 09:55:00,
2017-10-23 05:00:00,56.2,36.8,29.88,WNW,303,5.0,12.0,48,0.00,CLR,,0.00,WeatherDisplay:10.37,2017-10-23 10:00:00,
2017-10-23 05:05:00,56.2,36.8,29.88,NW,311,5.0,11.0,48,0.00,CLR,,0.00,WeatherDisplay:10.37,2017-10-23 10:05:00,
2017-10-23 05:10:00,56.1,36.7,29.89,NW,315,5.0,11.0,48,0.00,CLR,,0.00,WeatherDisplay:10.37,2017-10-23 10:10:00,
2017-10-23 05:15:00,56.0,36.5,29.89,NW,312,3.0,8.0,48,0.00,CLR,,0.00,WeatherDisplay:10.37,2017-10-23 10:15:00,
2017-10-23 05:20:00,55.8,36.9,29.90,NW,309,5.0,7.0,49,0.00,CLR,,0.00,WeatherDisplay:10.37,2017-10-23 10:20:00,
2017-10-23 05:25:00,55.7,36.9,29.90,NW,307,3.0,7.0,49,0.00,CLR,,0.00,WeatherDisplay:10.37,2017-10-23 10:25:00,
2017-10-23 05:30:00,55.6,36.8,29.91,NW,311,3.0,10.0,49,0.00,CLR,,0.00,WeatherDisplay:10.37,2017-10-23 10:30:00,
2017-10-23 05:35:00,55.7,37.3,29.91,NW,313,3.0,7.0,50,0.00,CLR,,0.00,WeatherDisplay:10.37,2017-10-23 10:35:00,
2017-10-23 05:40:00,55.7,37.3,29.91,NW,318,3.0,10.0,50,0.00,CLR,,0.00,WeatherDisplay:10.37,2017-10-23 10:40:00,
2017-10-23 05:45:00,55.8,37.4,29.92,NW,315,3.0,9.0,50,0.00,CLR,,0.00,WeatherDisplay:10.37,2017-10-23 10:45:00,
2017-10-23 05:50:00,55.8,37.4,29.92,NW,310,3.0,14.0,50,0.00,CLR,,0.00,WeatherDisplay:10.37,2017-10-23 10:50:00,
2017-10-23 05:55:00,55.9,37.6,29.93,NW,310,2.0,12.0,50,0.00,CLR,,0.00,WeatherDisplay:10.37,2017-10-23 10:55:00,
2017-10-23 05:59:00,56.0,37.6,29.93,NW,309,3.0,15.0,50,0.00,CLR,,0.00,WeatherDisplay:10.37,2017-10-23 10:59:00,
2017-10-23 06:05:00,55.9,38.0,29.93,NW,309,2.0,14.0,51,0.00,OVC,,0.00,WeatherDisplay:10.37,2017-10-23 11:05:00,
2017-10-23 06:10:00,55.8,37.9,29.93,NW,309,3.0,7.0,51,0.00,OVC,,0.00,WeatherDisplay:10.37,2017-10-23 11:10:00,
2017-10-23 06:15:00,55.8,37.9,29.94,NW,314,5.0,9.0,51,0.00,OVC,,0.00,WeatherDisplay:10.37,2017-10-23 11:15:00,
2017-10-23 06:20:00,55.9,38.0,29.94,NW,317,3.0,8.0,51,0.00,OVC,,0.00,WeatherDisplay:10.37,2017-10-23 11:20:00,
2017-10-23 06:25:00,55.8,37.9,29.95,NW,312,5.0,9.0,51,0.00,OVC,,0.00,WeatherDisplay:10.37,2017-10-23 11:25:00,
2017-10-23 06:30:00,55.7,38.3,29.94,NW,308,3.0,7.0,52,0.00,OVC,,0.00,WeatherDisplay:10.37,2017-10-23 11:30:00,
2017-10-23 06:35:00,55.6,38.2,29.95,NW,308,5.0,13.0,52,0.00,OVC,,0.00,WeatherDisplay:10.37,2017-10-23 11:35:00,
2017-10-23 06:40:00,55.6,37.8,29.95,NW,307,3.0,8.0,51,0.00,OVC,,0.00,WeatherDisplay:10.37,2017-10-23 11:40:00,
2017-10-23 06:45:00,55.6,39.2,29.96,NW,309,5.0,12.0,54,0.00,OVC,,0.00,WeatherDisplay:10.37,2017-10-23 11:45:00,
2017-10-23 06:50:00,55.0,39.6,29.96,NW,314,5.0,8.0,56,0.00,OVC,,0.00,WeatherDisplay:10.37,2017-10-23 11:50:00,
2017-10-23 06:55:00,54.5,39.6,29.96,NW,317,3.0,8.0,57,0.00,OVC,,0.00,WeatherDisplay:10.37,2017-10-23 11:55:00,
2017-10-23 07:00:00,54.5,38.6,29.96,NW,315,3.0,8.0,55,0.00,OVC,,0.00,WeatherDisplay:10.37,2017-10-23 12:00:00,
2017-10-23 07:05:00,54.6,38.8,29.95,NW,308,5.0,15.0,55,0.00,-RA,,0.00,WeatherDisplay:10.37,2017-10-23 12:05:00,
2017-10-23 07:10:00,54.9,38.1,29.96,NW,313,2.0,9.0,53,0.00,-RA,,0.00,WeatherDisplay:10.37,2017-10-23 12:10:00,
2017-10-23 07:15:00,55.2,38.3,29.96,NW,317,3.0,7.0,53,0.00,-RA,,0.00,WeatherDisplay:10.37,2017-10-23 12:15:00,
2017-10-23 07:20:00,55.3,38.0,29.96,NW,315,5.0,8.0,52,0.00,-RA,,0.00,WeatherDisplay:10.37,2017-10-23 12:20:00,
2017-10-23 07:25:00,55.4,38.1,29.97,NW,313,3.0,8.0,52,0.00,-RA,,0.00,WeatherDisplay:10.37,2017-10-23 12:25:00,
2017-10-23 07:30:00,55.5,38.1,29.98,NW,316,2.0,8.0,52,0.00,-RA,,0.00,WeatherDisplay:10.37,2017-10-23 12:30:00,
2017-10-23 07:35:00,55.5,38.1,29.98,NW,319,3.0,7.0,52,0.00,-RA,,0.00,WeatherDisplay:10.37,2017-10-23 12:35:00,
2017-10-23 07:40:00,55.3,38.0,29.98,NW,319,3.0,7.0,52,0.00,-RA,,0.00,WeatherDisplay:10.37,2017-10-23 12:40:00,
2017-10-23 07:45:00,55.4,38.1,29.99,NW,310,3.0,11.0,52,0.00,-RA,,0.00,WeatherDisplay:10.37,2017-10-23 12:45:00,
2017-10-23 07:50:00,55.5,38.1,29.99,NW,310,3.0,8.0,52,0.00,-RA,,0.00,WeatherDisplay:10.37,2017-10-23 12:50:00,
2017-10-23 07:55:00,55.4,38.1,29.99,NW,321,3.0,6.0,52,0.00,-RA,,0.00,WeatherDisplay:10.37,2017-10-23 12:55:00,
2017-10-23 08:00:00,55.4,38.0,29.98,NW,318,2.0,6.0,52,0.00,-RA,,0.00,WeatherDisplay:10.37,2017-10-23 13:00:00,
2017-10-23 08:05:00,55.3,38.0,29.99,NW,315,2.0,7.0,52,0.00,OVC,,0.00,WeatherDisplay:10.37,2017-10-23 13:05:00,
2017-10-23 08:09:00,55.4,38.0,29.98,NW,323,2.0,10.0,52,0.00,OVC,,0.00,WeatherDisplay:10.37,2017-10-23 13:09:00,
2017-10-23 08:15:00,55.2,38.4,29.99,NW,318,2.0,5.0,53,0.00,OVC,,0.00,WeatherDisplay:10.37,2017-10-23 13:15:00,
2017-10-23 08:20:00,55.0,38.1,29.99,NW,307,3.0,7.0,53,0.00,OVC,,0.00,WeatherDisplay:10.37,2017-10-23 13:20:00,
2017-10-23 08:25:00,54.8,38.4,29.99,NW,307,3.0,7.0,54,0.00,OVC,,0.00,WeatherDisplay:10.37,2017-10-23 13:25:00,
2017-10-23 08:30:00,54.6,36.3,29.99,NW,307,6.0,10.0,50,0.00,OVC,,0.00,WeatherDisplay:10.37,2017-10-23 13:30:00,
2017-10-23 08:35:00,54.6,34.8,30.00,NW,314,5.0,12.0,47,0.00,OVC,,0.00,WeatherDisplay:10.37,2017-10-23 13:35:00,
2017-10-23 08:40:00,54.5,34.7,30.00,NW,317,3.0,10.0,47,0.00,OVC,,0.00,WeatherDisplay:10.37,2017-10-23 13:40:00,
2017-10-23 08:45:00,54.4,34.5,30.00,NW,309,3.0,14.0,47,0.00,OVC,,0.00,WeatherDisplay:10.37,2017-10-23 13:45:00,
2017-10-23 08:50:00,54.0,33.7,30.00,NW,308,6.0,13.0,46,0.00,OVC,,0.00,WeatherDisplay:10.37,2017-10-23 13:50:00,
2017-10-23 08:55:00,53.8,33.5,30.00,NW,311,5.0,9.0,46,0.00,OVC,,0.00,WeatherDisplay:10.37,2017-10-23 13:55:00,
2017-10-23 09:00:00,53.5,33.2,30.01,NW,311,3.0,10.0,46,0.00,OVC,,0.00,WeatherDisplay:10.37,2017-10-23 14:00:00,
2017-10-23 09:05:00,53.3,32.5,30.01,NW,306,3.0,11.0,45,0.00,CLR,,0.00,WeatherDisplay:10.37,2017-10-23 14:05:00,
2017-10-23 09:10:00,53.7,32.9,30.01,NW,304,5.0,10.0,45,0.00,CLR,,0.00,WeatherDisplay:10.37,2017-10-23 14:10:00,
2017-10-23 09:15:00,54.1,32.7,30.01,NW,306,3.0,7.0,44,0.00,CLR,,0.00,WeatherDisplay:10.37,2017-10-23 14:15:00,
2017-10-23 09:20:00,54.4,32.9,30.01,NW,309,6.0,13.0,44,0.00,CLR,,0.00,WeatherDisplay:10.37,2017-10-23 14:20:00,
2017-10-23 09:25:00,54.6,33.1,30.02,NW,311,3.0,8.0,44,0.00,CLR,,0.00,WeatherDisplay:10.37,2017-10-23 14:25:00,
2017-10-23 09:30:00,54.8,33.3,30.02,NW,318,2.0,12.0,44,0.00,CLR,,0.00,WeatherDisplay:10.37,2017-10-23 14:30:00,
2017-10-23 09:35:00,54.6,33.1,30.01,NW,317,7.0,17.0,44,0.00,CLR,,0.00,WeatherDisplay:10.37,2017-10-23 14:35:00,
2017-10-23 09:40:00,54.5,33.5,30.02,NW,312,5.0,12.0,45,0.00,CLR,,0.00,WeatherDisplay:10.37,2017-10-23 14:40:00,
2017-10-23 09:45:00,54.4,33.5,30.02,NW,311,6.0,11.0,45,0.00,CLR,,0.00,WeatherDisplay:10.37,2017-10-23 14:45:00,
2017-10-23 09:50:00,54.5,34.1,30.03,NW,314,5.0,12.0,46,0.00,CLR,,0.00,WeatherDisplay:10.37,2017-10-23 14:50:00,
2017-10-23 09:55:00,54.5,34.1,30.03,NW,314,7.0,17.0,46,0.00,CLR,,0.00,WeatherDisplay:10.37,2017-10-23 14:55:00,
2017-10-23 10:00:00,54.5,34.6,30.03,NW,313,3.0,12.0,47,0.00,CLR,,0.00,WeatherDisplay:10.37,2017-10-23 15:00:00,
2017-10-23 10:05:00,54.5,34.7,30.03,NW,310,5.0,11.0,47,0.00,CLR,,0.00,WeatherDisplay:10.37,2017-10-23 15:05:00,
2017-10-23 10:10:00,54.7,34.9,30.04,NW,308,3.0,10.0,47,0.00,CLR,,0.00,WeatherDisplay:10.37,2017-10-23 15:10:00,
2017-10-23 10:15:00,54.9,35.0,30.04,NW,310,5.0,10.0,47,0.00,CLR,,0.00,WeatherDisplay:10.37,2017-10-23 15:15:00,
2017-10-23 10:20:00,55.0,34.6,30.04,NW,315,5.0,10.0,46,0.00,CLR,,0.00,WeatherDisplay:10.37,2017-10-23 15:20:00,
2017-10-23 10:25:00,54.9,35.0,30.04,NW,316,5.0,18.0,47,0.00,CLR,,0.00,WeatherDisplay:10.37,2017-10-23 15:25:00,
2017-10-23 10:30:00,55.0,35.1,30.04,NW,313,7.0,13.0,47,0.00,CLR,,0.00,WeatherDisplay:10.37,2017-10-23 15:30:00,
2017-10-23 10:35:00,55.3,35.4,30.05,NW,314,3.0,8.0,47,0.00,CLR,,0.00,WeatherDisplay:10.37,2017-10-23 15:35:00,
2017-10-23 10:39:00,55.5,35.1,30.05,NW,314,5.0,8.0,46,0.00,CLR,,0.00,WeatherDisplay:10.37,2017-10-23 15:39:00,
2017-10-23 10:45:00,55.9,35.4,30.05,NW,311,3.0,8.0,46,0.00,CLR,,0.00,WeatherDisplay:10.37,2017-10-23 15:45:00,
2017-10-23 10:50:00,56.0,34.9,30.05,WNW,300,6.0,10.0,45,0.00,CLR,,0.00,WeatherDisplay:10.37,2017-10-23 15:50:00,
2017-10-23 10:55:00,56.0,35.0,30.05,WNW,301,6.0,9.0,45,0.00,CLR,,0.00,WeatherDisplay:10.37,2017-10-23 15:55:00,
2017-10-23 11:00:00,56.0,35.5,30.05,NW,312,3.0,12.0,46,0.00,CLR,,0.00,WeatherDisplay:10.37,2017-10-23 16:00:00,
2017-10-23 11:05:00,56.3,35.2,30.05,NW,312,3.0,9.0,45,0.00,CLR,,0.00,WeatherDisplay:10.37,2017-10-23 16:05:00,
2017-10-23 11:10:00,56.6,35.5,30.05,NW,310,1.0,8.0,45,0.00,CLR,,0.00,WeatherDisplay:10.37,2017-10-23 16:10:00,
2017-10-23 11:15:00,56.9,35.2,30.05,NW,312,6.0,11.0,44,0.00,CLR,,0.00,WeatherDisplay:10.37,2017-10-23 16:15:00,
2017-10-23 11:20:00,56.7,35.0,30.05,NW,316,3.0,8.0,44,0.00,CLR,,0.00,WeatherDisplay:10.37,2017-10-23 16:20:00,
2017-10-23 11:25:00,56.9,35.2,30.05,NW,316,5.0,8.0,44,0.00,CLR,,0.00,WeatherDisplay:10.37,2017-10-23 16:25:00,
2017-10-23 11:30:00,57.2,35.5,30.05,NW,312,6.0,10.0,44,0.00,CLR,,0.00,WeatherDisplay:10.37,2017-10-23 16:30:00,
2017-10-23 11:35:00,57.2,35.4,30.05,NW,317,6.0,12.0,44,0.00,CLR,,0.00,WeatherDisplay:10.37,2017-10-23 16:35:00,
2017-10-23 11:40:00,57.1,35.4,30.05,NW,314,6.0,11.0,44,0.00,CLR,,0.00,WeatherDisplay:10.37,2017-10-23 16:40:00,
2017-10-23 11:45:00,57.2,35.5,30.05,NW,311,3.0,11.0,44,0.00,CLR,,0.00,WeatherDisplay:10.37,2017-10-23 16:45:00,
2017-10-23 11:50:00,57.6,35.8,30.06,NW,304,6.0,14.0,44,0.00,CLR,,0.00,WeatherDisplay:10.37,2017-10-23 16:50:00,
2017-10-23 11:55:00,57.5,35.2,30.05,NW,308,5.0,13.0,43,0.00,CLR,,0.00,WeatherDisplay:10.37,2017-10-23 16:55:00,
2017-10-23 12:00:00,57.7,34.8,30.05,NW,310,5.0,9.0,42,0.00,CLR,,0.00,WeatherDisplay:10.37,2017-10-23 17:00:00,
2017-10-23 12:05:00,58.2,34.6,30.05,NW,311,6.0,19.0,41,0.00,FEW,,0.00,WeatherDisplay:10.37,2017-10-23 17:05:00,
2017-10-23 12:10:00,58.1,35.1,30.05,NW,316,3.0,10.0,42,0.00,FEW,,0.00,WeatherDisplay:10.37,2017-10-23 17:10:00,
2017-10-23 12:14:00,58.1,33.2,30.06,NW,313,5.0,12.0,39,0.00,FEW,,0.00,WeatherDisplay:10.37,2017-10-23 17:14:00,